UAL79 LPPT-KBOS

Flight info

Callsign UAL79
Flight time 6h 36m
Altitude 36000
Route ELNUB DCT ERPES/M085F360 DCT 41N020W 43N030W/M085F380 43N040W 45N050W DCT RAFIN/N0484F380 N86B BRADD DCT EURRO OOSHN5
Aircraft B789/H-SDE1E2E3FGHIJ2J3J4J5M1RWXY/LB1D1

Departure

Time 2026-05-07 13:17
Airport Lisbon Humberto Delgado Airport (LPPT)

Arrival

Time 2026-05-07 19:54
Airport Boston Logan International Airport (KBOS)
Time Latitude Longitude Altitude Speed Heading
2026-05-07 12:42 38.77427 -9.13158 342 ft 0 kts 78°
2026-05-07 12:44 38.77427 -9.13159 342 ft 0 kts 78°
2026-05-07 12:54 38.77427 -9.13160 342 ft 0 kts 78°
2026-05-07 13:02 38.77427 -9.13161 342 ft 0 kts 78°
2026-05-07 13:04 38.77426 -9.13165 353 ft 2 kts 78°
2026-05-07 13:04 38.77423 -9.13184 346 ft 2 kts 78°
2026-05-07 13:05 38.77419 -9.13204 353 ft 2 kts 78°
2026-05-07 13:05 38.77416 -9.13224 354 ft 2 kts 78°
2026-05-07 13:05 38.77413 -9.13244 354 ft 2 kts 107°
2026-05-07 13:05 38.77420 -9.13261 354 ft 2 kts 140°
2026-05-07 13:06 38.77432 -9.13270 354 ft 0 kts 165°
2026-05-07 13:06 38.77432 -9.13271 354 ft 0 kts 165°
2026-05-07 13:07 38.77432 -9.13270 354 ft 0 kts 165°
2026-05-07 13:10 38.77419 -9.13266 352 ft 2 kts 165°
2026-05-07 13:10 38.77404 -9.13261 345 ft 2 kts 165°
2026-05-07 13:10 38.77388 -9.13256 349 ft 3 kts 165°
2026-05-07 13:10 38.77368 -9.13254 349 ft 5 kts 188°
2026-05-07 13:11 38.77351 -9.13271 354 ft 4 kts 233°
2026-05-07 13:11 38.77316 -9.13332 355 ft 11 kts 230°
2026-05-07 13:11 38.77259 -9.13356 353 ft 12 kts 174°
2026-05-07 13:11 38.77155 -9.13329 355 ft 16 kts 167°
2026-05-07 13:12 38.77051 -9.13299 354 ft 15 kts 167°
2026-05-07 13:12 38.76949 -9.13271 353 ft 15 kts 167°
2026-05-07 13:12 38.76849 -9.13242 346 ft 15 kts 168°
2026-05-07 13:12 38.76773 -9.13276 357 ft 9 kts 237°
2026-05-07 13:13 38.76751 -9.13331 354 ft 6 kts 244°
2026-05-07 13:13 38.76722 -9.13391 357 ft 13 kts 228°
2026-05-07 13:13 38.76654 -9.13500 357 ft 16 kts 253°
2026-05-07 13:13 38.76631 -9.13631 356 ft 14 kts 259°
2026-05-07 13:14 38.76611 -9.13763 354 ft 13 kts 256°
2026-05-07 13:14 38.76591 -9.13861 352 ft 13 kts 256°
2026-05-07 13:14 38.76571 -9.13965 360 ft 12 kts 256°
2026-05-07 13:14 38.76536 -9.14046 361 ft 10 kts 228°
2026-05-07 13:15 38.76500 -9.14112 358 ft 10 kts 251°
2026-05-07 13:15 38.76510 -9.14212 352 ft 13 kts 290°
2026-05-07 13:15 38.76548 -9.14330 351 ft 16 kts 293°
2026-05-07 13:15 38.76592 -9.14409 337 ft 2 kts 351°
2026-05-07 13:16 38.76598 -9.14406 338 ft 2 kts 17°
2026-05-07 13:16 38.76639 -9.14387 351 ft 13 kts 22°
2026-05-07 13:16 38.76793 -9.14306 352 ft 41 kts 22°
2026-05-07 13:16 38.77259 -9.14058 368 ft 104 kts 22°
2026-05-07 13:17 38.78118 -9.13598 374 ft 162 kts 22°
2026-05-07 13:17 38.79266 -9.12969 649 ft 181 kts 27°
2026-05-07 13:17 38.80328 -9.12380 1437 ft 157 kts 17°
2026-05-07 13:17 38.81390 -9.11641 1328 ft 198 kts 39°
2026-05-07 13:18 38.82445 -9.10392 1717 ft 209 kts 32°
2026-05-07 13:18 38.83719 -9.09455 2094 ft 220 kts 22°
2026-05-07 13:18 38.85165 -9.08556 2377 ft 250 kts 25°
2026-05-07 13:18 38.86776 -9.07468 3041 ft 265 kts 27°
2026-05-07 13:19 38.88409 -9.06328 4004 ft 269 kts 26°
2026-05-07 13:19 38.90207 -9.05768 4906 ft 268 kts 356°
2026-05-07 13:19 38.92096 -9.06018 5729 ft 277 kts 351°
2026-05-07 13:19 38.94009 -9.06485 6601 ft 282 kts 348°
2026-05-07 13:20 38.95955 -9.06983 7422 ft 286 kts 349°
2026-05-07 13:20 38.97927 -9.07427 8318 ft 290 kts 350°
2026-05-07 13:20 38.99869 -9.08147 9112 ft 292 kts 325°
2026-05-07 13:20 39.01377 -9.09867 9878 ft 294 kts 301°
2026-05-07 13:21 39.02138 -9.12300 10037 ft 309 kts 274°
2026-05-07 13:21 39.02298 -9.15168 10230 ft 335 kts 271°
2026-05-07 13:21 39.02421 -9.18277 10429 ft 359 kts 271°
2026-05-07 13:21 39.02553 -9.21494 11276 ft 361 kts 271°
2026-05-07 13:22 39.02705 -9.24726 12062 ft 365 kts 272°
2026-05-07 13:22 39.02859 -9.28003 12857 ft 368 kts 272°
2026-05-07 13:22 39.03005 -9.31311 13678 ft 372 kts 272°
2026-05-07 13:22 39.03150 -9.34663 14327 ft 376 kts 272°
2026-05-07 13:23 39.03298 -9.38019 15098 ft 378 kts 273°
2026-05-07 13:23 39.03448 -9.41431 15784 ft 381 kts 273°
2026-05-07 13:23 39.03596 -9.44834 16577 ft 382 kts 273°
2026-05-07 13:23 39.03745 -9.48279 17171 ft 388 kts 272°
2026-05-07 13:24 39.03893 -9.51767 17820 ft 392 kts 272°
2026-05-07 13:24 39.04042 -9.55278 18475 ft 394 kts 272°
2026-05-07 13:24 39.04189 -9.58766 19052 ft 397 kts 272°
2026-05-07 13:24 39.04339 -9.62332 19635 ft 399 kts 272°
2026-05-07 13:25 39.04487 -9.65906 20206 ft 401 kts 272°
2026-05-07 13:25 39.04636 -9.69505 20764 ft 404 kts 272°
2026-05-07 13:25 39.04784 -9.73131 21306 ft 406 kts 272°
2026-05-07 13:25 39.04932 -9.76781 21830 ft 409 kts 272°
2026-05-07 13:26 39.05080 -9.80446 22350 ft 411 kts 272°
2026-05-07 13:26 39.05226 -9.84084 22880 ft 413 kts 271°
2026-05-07 13:26 39.05374 -9.87809 23316 ft 417 kts 271°
2026-05-07 13:26 39.05520 -9.91547 23758 ft 419 kts 271°
2026-05-07 13:27 39.05667 -9.95298 24193 ft 420 kts 271°
2026-05-07 13:27 39.05813 -9.99052 24614 ft 421 kts 271°
2026-05-07 13:27 39.05958 -10.02829 25016 ft 422 kts 271°
2026-05-07 13:27 39.06101 -10.06612 25415 ft 423 kts 271°
2026-05-07 13:28 39.06242 -10.10356 25799 ft 425 kts 271°
2026-05-07 13:28 39.06386 -10.14208 26184 ft 426 kts 271°
2026-05-07 13:28 39.06526 -10.17965 26547 ft 427 kts 271°
2026-05-07 13:28 39.06667 -10.21789 26910 ft 428 kts 271°
2026-05-07 13:29 39.06806 -10.25627 27257 ft 430 kts 271°
2026-05-07 13:29 39.06945 -10.29482 27605 ft 431 kts 271°
2026-05-07 13:29 39.07083 -10.33342 27950 ft 432 kts 271°
2026-05-07 13:29 39.07220 -10.37212 28283 ft 434 kts 271°
2026-05-07 13:30 39.07356 -10.41095 28618 ft 435 kts 271°
2026-05-07 13:30 39.07492 -10.44988 28934 ft 436 kts 271°
2026-05-07 13:30 39.07626 -10.48892 29240 ft 437 kts 271°
2026-05-07 13:30 39.07760 -10.52811 29541 ft 438 kts 271°
2026-05-07 13:31 39.07892 -10.56742 29828 ft 440 kts 271°
2026-05-07 13:31 39.08024 -10.60686 30011 ft 443 kts 271°
2026-05-07 13:31 39.08159 -10.64603 30238 ft 444 kts 272°
2026-05-07 13:31 39.08628 -10.68596 30466 ft 447 kts 281°
2026-05-07 13:32 39.09459 -10.72303 30706 ft 449 kts 284°
2026-05-07 13:32 39.10349 -10.76159 30913 ft 450 kts 283°
2026-05-07 13:32 39.11239 -10.80021 31149 ft 450 kts 284°
2026-05-07 13:32 39.12138 -10.83885 31378 ft 451 kts 284°
2026-05-07 13:33 39.13039 -10.87758 31573 ft 452 kts 283°
2026-05-07 13:33 39.13936 -10.91641 31777 ft 452 kts 283°
2026-05-07 13:33 39.14831 -10.95525 32079 ft 451 kts 283°
2026-05-07 13:33 39.15724 -10.99400 32310 ft 451 kts 283°
2026-05-07 13:34 39.16614 -11.03265 32626 ft 449 kts 283°
2026-05-07 13:34 39.18376 -11.10945 33252 ft 445 kts 283°
2026-05-07 13:34 39.19251 -11.14770 33575 ft 443 kts 283°
2026-05-07 13:35 39.20120 -11.18570 33865 ft 441 kts 283°
2026-05-07 13:35 39.20984 -11.22358 34123 ft 440 kts 283°
2026-05-07 13:35 39.21846 -11.26145 34333 ft 439 kts 282°
2026-05-07 13:35 39.22704 -11.29920 34538 ft 438 kts 282°
2026-05-07 13:36 39.23561 -11.33690 34727 ft 438 kts 282°
2026-05-07 13:36 39.24406 -11.37421 34884 ft 439 kts 282°
2026-05-07 13:36 39.25263 -11.41212 35052 ft 440 kts 282°
2026-05-07 13:36 39.26119 -11.45003 35197 ft 440 kts 282°
2026-05-07 13:37 39.26974 -11.48793 35393 ft 440 kts 282°
2026-05-07 13:37 39.27828 -11.52583 35574 ft 440 kts 282°
2026-05-07 13:37 39.28681 -11.56383 35700 ft 441 kts 282°
2026-05-07 13:37 39.29527 -11.60156 35815 ft 441 kts 282°
2026-05-07 13:38 39.30388 -11.63999 35944 ft 442 kts 282°
2026-05-07 13:38 39.32102 -11.71673 35950 ft 445 kts 282°
2026-05-07 13:39 39.33801 -11.79296 35948 ft 443 kts 282°
2026-05-07 13:39 39.35497 -11.86947 35947 ft 442 kts 282°
2026-05-07 13:40 39.37188 -11.94594 35953 ft 442 kts 282°
2026-05-07 13:40 39.38864 -12.02202 35949 ft 442 kts 282°
2026-05-07 13:41 39.40549 -12.09877 35961 ft 447 kts 281°
2026-05-07 13:41 39.42248 -12.17637 35967 ft 448 kts 281°
2026-05-07 13:42 39.43937 -12.25382 35966 ft 446 kts 281°
2026-05-07 13:42 39.45601 -12.33042 35963 ft 444 kts 281°
2026-05-07 13:43 39.47268 -12.40747 35967 ft 445 kts 281°
2026-05-07 13:43 39.48942 -12.48506 35969 ft 448 kts 281°
2026-05-07 13:44 39.50616 -12.56290 35969 ft 448 kts 281°
2026-05-07 13:44 39.52284 -12.64077 35968 ft 448 kts 281°
2026-05-07 13:45 39.53947 -12.71867 35956 ft 448 kts 281°
2026-05-07 13:45 39.55594 -12.79608 35964 ft 450 kts 280°
2026-05-07 13:46 39.57253 -12.87443 35969 ft 451 kts 280°
2026-05-07 13:46 39.58910 -12.95285 35968 ft 451 kts 280°
2026-05-07 13:47 39.60558 -13.03123 35967 ft 450 kts 280°
2026-05-07 13:47 39.62201 -13.10962 35970 ft 450 kts 280°
2026-05-07 13:48 39.63842 -13.18819 35958 ft 451 kts 279°
2026-05-07 13:48 39.65480 -13.26693 35960 ft 452 kts 279°
2026-05-07 13:49 39.67104 -13.34527 35960 ft 452 kts 279°
2026-05-07 13:49 39.68733 -13.42418 35964 ft 452 kts 279°
2026-05-07 13:50 39.70359 -13.50321 35970 ft 454 kts 279°
2026-05-07 13:50 39.71987 -13.58267 35959 ft 455 kts 279°
2026-05-07 13:51 39.73327 -13.64825 35956 ft 455 kts 279°
2026-05-07 13:51 39.74943 -13.72764 35954 ft 454 kts 279°
2026-05-07 13:52 39.76549 -13.80685 35955 ft 453 kts 279°
2026-05-07 13:52 39.78150 -13.88614 35953 ft 455 kts 278°
2026-05-07 13:53 39.79760 -13.96620 35957 ft 460 kts 279°
2026-05-07 13:53 39.81376 -14.04672 35959 ft 460 kts 278°
2026-05-07 13:54 39.82972 -14.12673 35959 ft 460 kts 278°
2026-05-07 13:54 39.84575 -14.20730 35960 ft 459 kts 278°
2026-05-07 13:55 39.86176 -14.28822 35955 ft 463 kts 278°
2026-05-07 13:55 39.87782 -14.36954 35954 ft 463 kts 278°
2026-05-07 13:56 39.89376 -14.45068 35953 ft 462 kts 278°
2026-05-07 13:56 39.90953 -14.53127 35951 ft 461 kts 278°
2026-05-07 13:57 39.92531 -14.61227 35957 ft 463 kts 278°
2026-05-07 13:57 39.94117 -14.69397 35960 ft 466 kts 278°
2026-05-07 13:58 39.95703 -14.77590 35964 ft 466 kts 278°
2026-05-07 13:58 39.97276 -14.85772 35948 ft 469 kts 278°
2026-05-07 13:59 39.98858 -14.94012 35963 ft 468 kts 278°
2026-05-07 13:59 40.00509 -15.02247 35959 ft 470 kts 281°
2026-05-07 14:00 40.02343 -15.10444 35950 ft 471 kts 280°
2026-05-07 14:00 40.04176 -15.18654 35948 ft 470 kts 281°
2026-05-07 14:01 40.05998 -15.26838 35954 ft 469 kts 280°
2026-05-07 14:01 40.07809 -15.35019 35942 ft 468 kts 281°
2026-05-07 14:02 40.09618 -15.43201 35955 ft 468 kts 280°
2026-05-07 14:02 40.11421 -15.51409 35945 ft 472 kts 280°
2026-05-07 14:03 40.13221 -15.59608 35947 ft 472 kts 280°
2026-05-07 14:03 40.15024 -15.67874 35943 ft 474 kts 280°
2026-05-07 14:04 40.16829 -15.76166 35938 ft 474 kts 280°
2026-05-07 14:04 40.18627 -15.84467 35933 ft 474 kts 280°
2026-05-07 14:05 40.20416 -15.92755 35933 ft 473 kts 280°
2026-05-07 14:05 40.22191 -16.01009 35948 ft 474 kts 279°
2026-05-07 14:06 40.23982 -16.09372 35930 ft 479 kts 279°
2026-05-07 14:06 40.25773 -16.17758 35936 ft 477 kts 279°
2026-05-07 14:07 40.27549 -16.26120 35924 ft 475 kts 279°
2026-05-07 14:07 40.29318 -16.34472 35916 ft 476 kts 279°
2026-05-07 14:08 40.31089 -16.42881 35928 ft 481 kts 279°
2026-05-07 14:08 40.32869 -16.51339 35922 ft 481 kts 279°
2026-05-07 14:09 40.34637 -16.59800 35923 ft 480 kts 279°
2026-05-07 14:09 40.36388 -16.68202 35917 ft 482 kts 279°
2026-05-07 14:10 40.38157 -16.76730 35917 ft 486 kts 279°
2026-05-07 14:10 40.39932 -16.85306 35917 ft 486 kts 279°
2026-05-07 14:11 40.41694 -16.93872 35915 ft 485 kts 279°
2026-05-07 14:11 40.43448 -17.02426 35912 ft 485 kts 279°
2026-05-07 14:12 40.45180 -17.10915 35905 ft 485 kts 280°
2026-05-07 14:12 40.46923 -17.19485 35903 ft 485 kts 280°
2026-05-07 14:13 40.48660 -17.28068 35904 ft 487 kts 280°
2026-05-07 14:13 40.50399 -17.36684 35904 ft 488 kts 280°
2026-05-07 14:14 40.52131 -17.45318 35899 ft 488 kts 281°
2026-05-07 14:14 40.53855 -17.53933 35894 ft 487 kts 280°
2026-05-07 14:15 40.55559 -17.62495 35892 ft 486 kts 280°
2026-05-07 14:15 40.57265 -17.71098 35887 ft 486 kts 280°
2026-05-07 14:16 40.58964 -17.79711 35889 ft 486 kts 281°
2026-05-07 14:16 40.60661 -17.88343 35883 ft 489 kts 281°
2026-05-07 14:17 40.62358 -17.97012 35882 ft 489 kts 281°
2026-05-07 14:17 40.64051 -18.05699 35876 ft 488 kts 281°
2026-05-07 14:18 40.65731 -18.14357 35870 ft 487 kts 281°
2026-05-07 14:18 40.67391 -18.22949 35868 ft 486 kts 281°
2026-05-07 14:19 40.69056 -18.31608 35865 ft 488 kts 281°
2026-05-07 14:19 40.70719 -18.40295 35877 ft 489 kts 281°
2026-05-07 14:20 40.72384 -18.49030 35867 ft 491 kts 281°
2026-05-07 14:20 40.74037 -18.57728 35864 ft 488 kts 281°
2026-05-07 14:21 40.75667 -18.66364 35863 ft 488 kts 281°
2026-05-07 14:21 40.77306 -18.75075 35856 ft 489 kts 281°
2026-05-07 14:22 40.78941 -18.83802 35860 ft 490 kts 281°
2026-05-07 14:22 40.80572 -18.92553 35859 ft 491 kts 281°
2026-05-07 14:23 40.82188 -19.01262 35849 ft 492 kts 281°
2026-05-07 14:23 40.83811 -19.10046 35855 ft 491 kts 281°
2026-05-07 14:24 40.85423 -19.18814 35849 ft 490 kts 281°
2026-05-07 14:24 40.87022 -19.27545 35837 ft 488 kts 281°
2026-05-07 14:25 40.88615 -19.36290 35837 ft 489 kts 281°
2026-05-07 14:25 40.90205 -19.45055 35836 ft 490 kts 281°
2026-05-07 14:26 40.91788 -19.53823 35839 ft 489 kts 281°
2026-05-07 14:26 40.93352 -19.62534 35833 ft 491 kts 281°
2026-05-07 14:27 40.94927 -19.71337 35832 ft 492 kts 281°
2026-05-07 14:27 40.96494 -19.80142 35846 ft 492 kts 281°
2026-05-07 14:28 40.98054 -19.88946 35813 ft 488 kts 281°
2026-05-07 14:28 40.99595 -19.97690 35815 ft 488 kts 281°
2026-05-07 14:29 41.01585 -20.06317 35817 ft 491 kts 286°
2026-05-07 14:29 41.03716 -20.14866 35821 ft 492 kts 286°
2026-05-07 14:30 41.05848 -20.23431 35809 ft 487 kts 286°
2026-05-07 14:30 41.07962 -20.31967 35809 ft 487 kts 286°
2026-05-07 14:31 41.10073 -20.40515 35803 ft 487 kts 286°
2026-05-07 14:31 41.12176 -20.49065 35811 ft 487 kts 286°
2026-05-07 14:32 41.14268 -20.57598 35817 ft 485 kts 286°
2026-05-07 14:32 41.16357 -20.66156 35804 ft 489 kts 286°
2026-05-07 14:33 41.18438 -20.74707 35808 ft 490 kts 286°
2026-05-07 14:33 41.20526 -20.83319 35802 ft 490 kts 286°
2026-05-07 14:34 41.22601 -20.91908 35797 ft 486 kts 286°
2026-05-07 14:34 41.24662 -21.00476 35791 ft 486 kts 286°
2026-05-07 14:35 41.26704 -21.08991 35800 ft 488 kts 286°
2026-05-07 14:35 41.28765 -21.17622 35791 ft 491 kts 286°
2026-05-07 14:36 41.30821 -21.26260 35789 ft 489 kts 286°
2026-05-07 14:36 41.32522 -21.33437 35785 ft 489 kts 286°
2026-05-07 14:37 41.34563 -21.42071 35786 ft 489 kts 286°
2026-05-07 14:37 41.37606 -21.55010 35791 ft 488 kts 286°
2026-05-07 14:38 41.39635 -21.63682 35793 ft 491 kts 286°
2026-05-07 14:38 41.41663 -21.72375 35790 ft 492 kts 286°
2026-05-07 14:39 41.43684 -21.81079 35798 ft 491 kts 286°
2026-05-07 14:39 41.45693 -21.89761 35783 ft 489 kts 286°
2026-05-07 14:40 41.47681 -21.98386 35783 ft 488 kts 286°
2026-05-07 14:40 41.49679 -22.07087 35784 ft 492 kts 286°
2026-05-07 14:41 41.51678 -22.15829 35789 ft 493 kts 286°
2026-05-07 14:41 41.53671 -22.24578 35787 ft 493 kts 286°
2026-05-07 14:42 41.55644 -22.33273 35781 ft 492 kts 286°
2026-05-07 14:42 41.57624 -22.42035 35780 ft 492 kts 286°
2026-05-07 14:43 41.59595 -22.50790 35788 ft 493 kts 286°
2026-05-07 14:43 41.61564 -22.59571 35782 ft 494 kts 286°
2026-05-07 14:44 41.63523 -22.68341 35784 ft 494 kts 286°
2026-05-07 14:44 41.65480 -22.77141 35785 ft 494 kts 286°
2026-05-07 14:45 41.67425 -22.85921 35778 ft 489 kts 286°
2026-05-07 14:45 41.69345 -22.94622 35777 ft 489 kts 285°
2026-05-07 14:46 41.71269 -23.03380 35784 ft 490 kts 285°
2026-05-07 14:46 41.73190 -23.12160 35789 ft 492 kts 286°
2026-05-07 14:47 41.75106 -23.20947 35792 ft 491 kts 286°
2026-05-07 14:47 41.77007 -23.29706 35789 ft 489 kts 286°
2026-05-07 14:48 41.78886 -23.38397 35792 ft 489 kts 286°
2026-05-07 14:48 41.80783 -23.47206 35795 ft 492 kts 286°
2026-05-07 14:49 41.82667 -23.55992 35794 ft 493 kts 286°
2026-05-07 14:49 41.84545 -23.64790 35796 ft 490 kts 286°
2026-05-07 14:50 41.86410 -23.73559 35793 ft 488 kts 286°
2026-05-07 14:50 41.88269 -23.82340 35803 ft 488 kts 286°
2026-05-07 14:51 41.90133 -23.91176 35803 ft 494 kts 287°
2026-05-07 14:51 41.91994 -24.00042 35806 ft 493 kts 287°
2026-05-07 14:52 41.93843 -24.08882 35804 ft 490 kts 287°
2026-05-07 14:52 41.95669 -24.17651 35806 ft 490 kts 286°
2026-05-07 14:53 41.97504 -24.26513 35807 ft 493 kts 287°
2026-05-07 14:53 41.99344 -24.35418 35807 ft 495 kts 287°
2026-05-07 14:54 42.01175 -24.44329 35811 ft 492 kts 287°
2026-05-07 14:54 42.02990 -24.53198 35812 ft 492 kts 287°
2026-05-07 14:55 42.04793 -24.62044 35814 ft 492 kts 287°
2026-05-07 14:55 42.06596 -24.70930 35814 ft 491 kts 287°
2026-05-07 14:56 42.08382 -24.79776 35810 ft 490 kts 287°
2026-05-07 14:56 42.10165 -24.88642 35811 ft 491 kts 287°
2026-05-07 14:57 42.11944 -24.97521 35816 ft 491 kts 287°
2026-05-07 14:57 42.13703 -25.06349 35820 ft 489 kts 287°
2026-05-07 14:58 42.15460 -25.15198 35820 ft 489 kts 287°
2026-05-07 14:58 42.17221 -25.24112 35821 ft 492 kts 287°
2026-05-07 14:59 42.18972 -25.33018 35828 ft 491 kts 287°
2026-05-07 14:59 42.20714 -25.41908 35827 ft 490 kts 287°
2026-05-07 15:00 42.22452 -25.50823 35828 ft 491 kts 287°
2026-05-07 15:00 42.24173 -25.59699 35825 ft 491 kts 287°
2026-05-07 15:01 42.25899 -25.68628 35828 ft 491 kts 287°
2026-05-07 15:01 42.27616 -25.77556 35829 ft 492 kts 287°
2026-05-07 15:02 42.29328 -25.86498 35831 ft 492 kts 287°
2026-05-07 15:02 42.31031 -25.95440 35833 ft 490 kts 287°
2026-05-07 15:03 42.32720 -26.04348 35832 ft 489 kts 287°
2026-05-07 15:03 42.34410 -26.13291 35845 ft 492 kts 287°
2026-05-07 15:04 42.36097 -26.22278 35850 ft 493 kts 287°
2026-05-07 15:04 42.37765 -26.31190 35853 ft 492 kts 287°
2026-05-07 15:05 42.39444 -26.40208 35853 ft 490 kts 287°
2026-05-07 15:05 42.41083 -26.49061 35849 ft 488 kts 287°
2026-05-07 15:06 42.42732 -26.57995 35858 ft 489 kts 287°
2026-05-07 15:06 42.44370 -26.66922 35865 ft 488 kts 287°
2026-05-07 15:07 42.46001 -26.75853 35872 ft 489 kts 287°
2026-05-07 15:07 42.47628 -26.84807 35874 ft 490 kts 287°
2026-05-07 15:08 42.49245 -26.93743 35866 ft 488 kts 287°
2026-05-07 15:08 42.50853 -27.02669 35871 ft 487 kts 287°
2026-05-07 15:09 42.52445 -27.11553 35876 ft 489 kts 287°
2026-05-07 15:09 42.54043 -27.20520 35883 ft 489 kts 287°
2026-05-07 15:10 42.55633 -27.29477 35891 ft 488 kts 287°
2026-05-07 15:10 42.57213 -27.38427 35879 ft 487 kts 287°
2026-05-07 15:11 42.58788 -27.47389 35898 ft 490 kts 287°
2026-05-07 15:11 42.60358 -27.56375 35900 ft 489 kts 287°
2026-05-07 15:12 42.61923 -27.65360 35906 ft 489 kts 287°
2026-05-07 15:12 42.63477 -27.74345 35905 ft 489 kts 287°
2026-05-07 15:13 42.65027 -27.83341 35897 ft 488 kts 287°
2026-05-07 15:13 42.66561 -27.92296 35916 ft 485 kts 287°
2026-05-07 15:14 42.68077 -28.01183 35913 ft 486 kts 287°
2026-05-07 15:14 42.69597 -28.10143 35927 ft 487 kts 287°
2026-05-07 15:15 42.71110 -28.19109 35929 ft 487 kts 287°
2026-05-07 15:15 42.72618 -28.28090 35935 ft 487 kts 287°
2026-05-07 15:16 42.74110 -28.37026 35931 ft 485 kts 287°
2026-05-07 15:16 42.75600 -28.45984 35939 ft 484 kts 287°
2026-05-07 15:17 42.77080 -28.54937 35933 ft 485 kts 287°
2026-05-07 15:17 42.78553 -28.63887 35943 ft 485 kts 287°
2026-05-07 15:18 42.80021 -28.72857 35943 ft 485 kts 287°
2026-05-07 15:18 42.81483 -28.81840 35959 ft 486 kts 287°
2026-05-07 15:19 42.82935 -28.90809 35954 ft 484 kts 287°
2026-05-07 15:19 42.84365 -28.99689 35969 ft 484 kts 287°
2026-05-07 15:20 42.85794 -29.08605 35967 ft 485 kts 287°
2026-05-07 15:20 42.87229 -29.17613 35970 ft 487 kts 287°
2026-05-07 15:21 42.88660 -29.26636 35992 ft 487 kts 287°
2026-05-07 15:21 42.90076 -29.35630 35980 ft 482 kts 287°
2026-05-07 15:22 42.91475 -29.44539 35983 ft 481 kts 287°
2026-05-07 15:22 42.92871 -29.53493 35985 ft 482 kts 287°
2026-05-07 15:23 42.94263 -29.62470 35991 ft 483 kts 287°
2026-05-07 15:23 42.95416 -29.69946 36000 ft 483 kts 287°
2026-05-07 15:24 42.97017 -29.80378 35977 ft 482 kts 287°
2026-05-07 15:24 42.98153 -29.87826 36005 ft 477 kts 288°
2026-05-07 15:25 42.99495 -29.96651 36003 ft 478 kts 288°
2026-05-07 15:25 43.00255 -30.05743 36015 ft 486 kts 279°
2026-05-07 15:26 43.00643 -30.14986 36024 ft 486 kts 279°
2026-05-07 15:26 43.01032 -30.24211 36016 ft 487 kts 279°
2026-05-07 15:27 43.01411 -30.33419 36020 ft 488 kts 279°
2026-05-07 15:27 43.01782 -30.42676 36026 ft 487 kts 279°
2026-05-07 15:28 43.02148 -30.51903 36029 ft 486 kts 279°
2026-05-07 15:28 43.02502 -30.61083 36031 ft 485 kts 279°
2026-05-07 15:29 43.02851 -30.70294 36033 ft 484 kts 280°
2026-05-07 15:29 43.03191 -30.79451 36040 ft 482 kts 280°
2026-05-07 15:30 43.03525 -30.88615 36060 ft 484 kts 280°
2026-05-07 15:30 43.03850 -30.97824 36055 ft 485 kts 280°
2026-05-07 15:31 43.04170 -31.07042 36061 ft 485 kts 280°
2026-05-07 15:31 43.04480 -31.16241 36054 ft 481 kts 280°
2026-05-07 15:32 43.04781 -31.25292 36060 ft 480 kts 280°
2026-05-07 15:32 43.05076 -31.34425 36063 ft 481 kts 280°
2026-05-07 15:33 43.05363 -31.43570 36045 ft 482 kts 280°
2026-05-07 15:33 43.05644 -31.52722 36070 ft 482 kts 280°
2026-05-07 15:34 43.05914 -31.61843 36086 ft 477 kts 280°
2026-05-07 15:34 43.06180 -31.70877 36081 ft 476 kts 280°
2026-05-07 15:35 43.06435 -31.79940 36091 ft 476 kts 280°
2026-05-07 15:35 43.06684 -31.88991 36094 ft 476 kts 280°
2026-05-07 15:36 43.06926 -31.98045 36101 ft 477 kts 279°
2026-05-07 15:36 43.07155 -32.06930 36096 ft 471 kts 279°
2026-05-07 15:37 43.07385 -32.15920 36110 ft 474 kts 279°
2026-05-07 15:37 43.07600 -32.24896 36118 ft 474 kts 279°
2026-05-07 15:38 43.07815 -32.33931 36122 ft 475 kts 279°
2026-05-07 15:38 43.08020 -32.42959 36091 ft 474 kts 279°
2026-05-07 15:39 43.08215 -32.51898 36119 ft 468 kts 279°
2026-05-07 15:39 43.08405 -32.60688 36130 ft 469 kts 279°
2026-05-07 15:40 43.08585 -32.69605 36139 ft 469 kts 278°
2026-05-07 15:40 43.08763 -32.78543 36140 ft 471 kts 278°
2026-05-07 15:41 43.08931 -32.87505 36129 ft 470 kts 278°
2026-05-07 15:41 43.09092 -32.96405 36143 ft 466 kts 278°
2026-05-07 15:42 43.09248 -33.05289 36145 ft 467 kts 278°
2026-05-07 15:42 43.09394 -33.14174 36150 ft 467 kts 278°
2026-05-07 15:43 43.09535 -33.23063 36151 ft 467 kts 278°
2026-05-07 15:43 43.09668 -33.31948 36168 ft 466 kts 278°
2026-05-07 15:44 43.09794 -33.40773 36167 ft 467 kts 277°
2026-05-07 15:44 43.09910 -33.49366 36175 ft 468 kts 277°
2026-05-07 15:45 43.10023 -33.58262 36179 ft 469 kts 277°
2026-05-07 15:45 43.10129 -33.67108 36183 ft 468 kts 277°
2026-05-07 15:46 43.10274 -33.80427 36176 ft 463 kts 277°
2026-05-07 15:47 43.10364 -33.89252 36186 ft 464 kts 277°
2026-05-07 15:47 43.10446 -33.98096 36185 ft 465 kts 277°
2026-05-07 15:48 43.10521 -34.06964 36195 ft 467 kts 277°
2026-05-07 15:48 43.10589 -34.15836 36198 ft 467 kts 277°
2026-05-07 15:49 43.10649 -34.24682 36192 ft 462 kts 277°
2026-05-07 15:49 43.10706 -34.33468 36201 ft 461 kts 277°
2026-05-07 15:50 43.10752 -34.42263 36197 ft 462 kts 277°
2026-05-07 15:50 43.10793 -34.51002 36197 ft 462 kts 277°
2026-05-07 15:51 43.10827 -34.59793 36208 ft 461 kts 276°
2026-05-07 15:51 43.10855 -34.68581 36208 ft 461 kts 276°
2026-05-07 15:52 43.10875 -34.77365 36213 ft 461 kts 276°
2026-05-07 15:52 43.10889 -34.86118 36216 ft 462 kts 276°
2026-05-07 15:53 43.10897 -34.94911 36220 ft 462 kts 276°
2026-05-07 15:53 43.10897 -35.03704 36221 ft 462 kts 276°
2026-05-07 15:54 43.10890 -35.12367 36228 ft 459 kts 276°
2026-05-07 15:54 43.10879 -35.21067 36229 ft 459 kts 276°
2026-05-07 15:55 43.10859 -35.29809 36237 ft 460 kts 276°
2026-05-07 15:55 43.10833 -35.38561 36237 ft 460 kts 276°
2026-05-07 15:56 43.10800 -35.47320 36241 ft 460 kts 276°
2026-05-07 15:56 43.10760 -35.56062 36233 ft 458 kts 276°
2026-05-07 15:57 43.10715 -35.64780 36234 ft 458 kts 275°
2026-05-07 15:57 43.10662 -35.73490 36237 ft 458 kts 275°
2026-05-07 15:58 43.10604 -35.82202 36246 ft 458 kts 275°
2026-05-07 15:58 43.10538 -35.90940 36249 ft 460 kts 275°
2026-05-07 15:59 43.10464 -35.99568 36247 ft 453 kts 275°
2026-05-07 15:59 43.10390 -36.08196 36247 ft 454 kts 275°
2026-05-07 16:00 43.10303 -36.16859 36256 ft 456 kts 275°
2026-05-07 16:00 43.10212 -36.25531 36259 ft 456 kts 275°
2026-05-07 16:01 43.10113 -36.34201 36266 ft 456 kts 275°
2026-05-07 16:01 43.10008 -36.42832 36248 ft 451 kts 275°
2026-05-07 16:02 43.09901 -36.51449 36262 ft 454 kts 274°
2026-05-07 16:02 43.09781 -36.60046 36271 ft 455 kts 274°
2026-05-07 16:03 43.09659 -36.68697 36277 ft 455 kts 274°
2026-05-07 16:03 43.09528 -36.77346 36275 ft 455 kts 274°
2026-05-07 16:04 43.09391 -36.85962 36274 ft 452 kts 274°
2026-05-07 16:04 43.09250 -36.94550 36275 ft 451 kts 274°
2026-05-07 16:05 43.09101 -37.03119 36278 ft 451 kts 274°
2026-05-07 16:05 43.08946 -37.11717 36282 ft 453 kts 273°
2026-05-07 16:06 43.08783 -37.20359 36285 ft 454 kts 273°
2026-05-07 16:06 43.08613 -37.28964 36281 ft 449 kts 273°
2026-05-07 16:07 43.08442 -37.37492 36281 ft 449 kts 273°
2026-05-07 16:07 43.08263 -37.45987 36283 ft 450 kts 273°
2026-05-07 16:08 43.08076 -37.54559 36290 ft 451 kts 272°
2026-05-07 16:08 43.07882 -37.63148 36291 ft 451 kts 272°
2026-05-07 16:09 43.07683 -37.71663 36289 ft 447 kts 272°
2026-05-07 16:09 43.07479 -37.80154 36290 ft 446 kts 272°
2026-05-07 16:10 43.07269 -37.88625 36296 ft 445 kts 272°
2026-05-07 16:10 43.07053 -37.97109 36297 ft 447 kts 272°
2026-05-07 16:11 43.06829 -38.05636 36304 ft 449 kts 272°
2026-05-07 16:11 43.06599 -38.14107 36304 ft 446 kts 272°
2026-05-07 16:12 43.06366 -38.22562 36304 ft 444 kts 272°
2026-05-07 16:12 43.06124 -38.31037 36309 ft 446 kts 272°
2026-05-07 16:13 43.05877 -38.39488 36315 ft 448 kts 272°
2026-05-07 16:13 43.05622 -38.47994 36315 ft 447 kts 272°
2026-05-07 16:14 43.05362 -38.56472 36321 ft 443 kts 272°
2026-05-07 16:14 43.05141 -38.63477 36310 ft 439 kts 272°
2026-05-07 16:15 43.04877 -38.71792 36315 ft 442 kts 272°
2026-05-07 16:15 43.04600 -38.80189 36320 ft 443 kts 271°
2026-05-07 16:16 43.04319 -38.88596 36328 ft 443 kts 271°
2026-05-07 16:16 43.04030 -38.97016 36323 ft 444 kts 271°
2026-05-07 16:17 43.03734 -39.05473 36327 ft 444 kts 271°
2026-05-07 16:17 43.03433 -39.13900 36331 ft 444 kts 271°
2026-05-07 16:18 43.03126 -39.22324 36329 ft 443 kts 271°
2026-05-07 16:18 43.02813 -39.30731 36324 ft 443 kts 271°
2026-05-07 16:19 43.02494 -39.39131 36329 ft 442 kts 271°
2026-05-07 16:19 43.02173 -39.47393 36323 ft 434 kts 271°
2026-05-07 16:20 43.01851 -39.55649 36327 ft 438 kts 271°
2026-05-07 16:20 43.01515 -39.63985 36339 ft 440 kts 270°
2026-05-07 16:21 43.01174 -39.72326 36333 ft 439 kts 270°
2026-05-07 16:21 43.00829 -39.80643 36337 ft 438 kts 270°
2026-05-07 16:22 43.00482 -39.88798 36339 ft 430 kts 271°
2026-05-07 16:22 43.00228 -39.96920 36352 ft 426 kts 277°
2026-05-07 16:23 43.01223 -40.04809 36357 ft 424 kts 290°
2026-05-07 16:23 43.03125 -40.12457 36348 ft 426 kts 290°
2026-05-07 16:24 43.05047 -40.20146 36360 ft 426 kts 290°
2026-05-07 16:24 43.06923 -40.27683 36359 ft 426 kts 290°
2026-05-07 16:25 43.08829 -40.35366 36358 ft 426 kts 290°
2026-05-07 16:25 43.10719 -40.43008 36357 ft 426 kts 290°
2026-05-07 16:26 43.12624 -40.50736 36344 ft 428 kts 290°
2026-05-07 16:26 43.14494 -40.58352 36344 ft 419 kts 290°
2026-05-07 16:27 43.16354 -40.65943 36344 ft 422 kts 289°
2026-05-07 16:27 43.18216 -40.73577 36355 ft 422 kts 289°
2026-05-07 16:28 43.20070 -40.81200 36354 ft 423 kts 289°
2026-05-07 16:28 43.21926 -40.88854 36365 ft 422 kts 289°
2026-05-07 16:28 43.22832 -40.92606 36834 ft 415 kts 289°
2026-05-07 16:29 43.23735 -40.96346 37118 ft 413 kts 289°
2026-05-07 16:29 43.24637 -41.00085 37338 ft 412 kts 289°
2026-05-07 16:29 43.25536 -41.03821 37560 ft 412 kts 289°
2026-05-07 16:29 43.26431 -41.07548 37777 ft 411 kts 289°
2026-05-07 16:30 43.27323 -41.11267 37973 ft 410 kts 289°
2026-05-07 16:30 43.29114 -41.18751 38095 ft 415 kts 289°
2026-05-07 16:30 43.30010 -41.22509 38256 ft 415 kts 289°
2026-05-07 16:31 43.30910 -41.26285 38351 ft 416 kts 289°
2026-05-07 16:31 43.32714 -41.33878 38357 ft 416 kts 290°
2026-05-07 16:32 43.34477 -41.41323 38354 ft 411 kts 289°
2026-05-07 16:32 43.36241 -41.48792 38348 ft 412 kts 289°
2026-05-07 16:33 43.38009 -41.56311 38367 ft 414 kts 289°
2026-05-07 16:33 43.39781 -41.63867 38380 ft 414 kts 289°
2026-05-07 16:34 43.41530 -41.71353 38364 ft 414 kts 289°
2026-05-07 16:34 43.43286 -41.78892 38374 ft 414 kts 289°
2026-05-07 16:35 43.45039 -41.86443 38369 ft 415 kts 289°
2026-05-07 16:35 43.46801 -41.94062 38380 ft 419 kts 289°
2026-05-07 16:36 43.48563 -42.01707 38374 ft 419 kts 289°
2026-05-07 16:36 43.50319 -42.09352 38378 ft 418 kts 289°
2026-05-07 16:37 43.52054 -42.16935 38380 ft 416 kts 289°
2026-05-07 16:37 43.53779 -42.24494 38372 ft 412 kts 289°
2026-05-07 16:38 43.55496 -42.32046 38377 ft 413 kts 289°
2026-05-07 16:38 43.57212 -42.39621 38379 ft 414 kts 289°
2026-05-07 16:39 43.58924 -42.47208 38381 ft 415 kts 289°
2026-05-07 16:39 43.60636 -42.54818 38387 ft 415 kts 288°
2026-05-07 16:40 43.62350 -42.62463 38393 ft 418 kts 288°
2026-05-07 16:40 43.64060 -42.70118 38394 ft 417 kts 288°
2026-05-07 16:41 43.65749 -42.77708 38390 ft 415 kts 288°
2026-05-07 16:41 43.67438 -42.85324 38387 ft 414 kts 288°
2026-05-07 16:42 43.69121 -42.92934 38375 ft 415 kts 288°
2026-05-07 16:42 43.70810 -43.00608 38388 ft 419 kts 288°
2026-05-07 16:43 43.72501 -43.08312 38390 ft 418 kts 288°
2026-05-07 16:43 43.74183 -43.16009 38389 ft 417 kts 288°
2026-05-07 16:44 43.75845 -43.23640 38386 ft 416 kts 288°
2026-05-07 16:44 43.77512 -43.31315 38389 ft 417 kts 287°
2026-05-07 16:45 43.79182 -43.39042 38396 ft 420 kts 287°
2026-05-07 16:45 43.80853 -43.46794 38400 ft 420 kts 287°
2026-05-07 16:46 43.82520 -43.54563 38398 ft 420 kts 287°
2026-05-07 16:46 43.84181 -43.62330 38399 ft 420 kts 287°
2026-05-07 16:47 43.85828 -43.70056 38398 ft 423 kts 287°
2026-05-07 16:47 43.87493 -43.77904 38401 ft 424 kts 287°
2026-05-07 16:48 43.89149 -43.85732 38395 ft 422 kts 287°
2026-05-07 16:48 43.90795 -43.93545 38387 ft 421 kts 287°
2026-05-07 16:49 43.92432 -44.01344 38389 ft 422 kts 287°
2026-05-07 16:49 43.94074 -44.09201 38399 ft 426 kts 287°
2026-05-07 16:50 43.95721 -44.17109 38404 ft 427 kts 287°
2026-05-07 16:50 43.97364 -44.25028 38409 ft 427 kts 287°
2026-05-07 16:51 43.98992 -44.32904 38408 ft 427 kts 287°
2026-05-07 16:51 44.00623 -44.40826 38408 ft 426 kts 287°
2026-05-07 16:52 44.02246 -44.48744 38407 ft 426 kts 287°
2026-05-07 16:52 44.03865 -44.56667 38406 ft 426 kts 287°
2026-05-07 16:53 44.05476 -44.64588 38405 ft 426 kts 286°
2026-05-07 16:53 44.07083 -44.72514 38390 ft 427 kts 287°
2026-05-07 16:54 44.08700 -44.80525 38393 ft 432 kts 286°
2026-05-07 16:54 44.10333 -44.88652 38398 ft 439 kts 286°
2026-05-07 16:55 44.11977 -44.96863 38403 ft 441 kts 286°
2026-05-07 16:55 44.13598 -45.04991 38407 ft 441 kts 286°
2026-05-07 16:56 44.15228 -45.13198 38410 ft 441 kts 286°
2026-05-07 16:56 44.17675 -45.25587 38404 ft 443 kts 285°
2026-05-07 16:57 44.19302 -45.33868 38407 ft 443 kts 285°
2026-05-07 16:57 44.20925 -45.42164 38408 ft 443 kts 285°
2026-05-07 16:58 44.22540 -45.50450 38408 ft 443 kts 285°
2026-05-07 16:58 44.24156 -45.58783 38392 ft 446 kts 285°
2026-05-07 16:59 44.25760 -45.67084 38385 ft 445 kts 285°
2026-05-07 16:59 44.27361 -45.75408 38385 ft 443 kts 285°
2026-05-07 17:00 44.28955 -45.83731 38387 ft 444 kts 285°
2026-05-07 17:00 44.30548 -45.92087 38387 ft 446 kts 285°
2026-05-07 17:01 44.32144 -46.00497 38393 ft 449 kts 285°
2026-05-07 17:01 44.33471 -46.07512 38395 ft 449 kts 284°
2026-05-07 17:02 44.35314 -46.17305 38398 ft 448 kts 284°
2026-05-07 17:02 44.36890 -46.25719 38396 ft 448 kts 284°
2026-05-07 17:03 44.38203 -46.32753 38390 ft 451 kts 284°
2026-05-07 17:03 44.39780 -46.41240 38391 ft 451 kts 284°
2026-05-07 17:04 44.41351 -46.49737 38391 ft 451 kts 284°
2026-05-07 17:04 44.42916 -46.58238 38388 ft 451 kts 284°
2026-05-07 17:05 44.44474 -46.66738 38381 ft 451 kts 284°
2026-05-07 17:05 44.46023 -46.75226 38382 ft 454 kts 284°
2026-05-07 17:06 44.47581 -46.83806 38380 ft 454 kts 284°
2026-05-07 17:06 44.49125 -46.92352 38380 ft 453 kts 284°
2026-05-07 17:07 44.50632 -47.00723 38380 ft 453 kts 283°
2026-05-07 17:07 44.52170 -47.09311 38377 ft 455 kts 283°
2026-05-07 17:08 44.53696 -47.17874 38380 ft 456 kts 283°
2026-05-07 17:08 44.55112 -47.25857 38378 ft 455 kts 283°
2026-05-07 17:09 44.55740 -47.34288 38365 ft 454 kts 270°
2026-05-07 17:09 44.55763 -47.41374 38367 ft 454 kts 272°
2026-05-07 17:10 44.55953 -47.50228 38369 ft 454 kts 271°
2026-05-07 17:10 44.56040 -47.59094 38365 ft 455 kts 271°
2026-05-07 17:11 44.56169 -47.67970 38365 ft 456 kts 271°
2026-05-07 17:11 44.56268 -47.76812 38362 ft 456 kts 271°
2026-05-07 17:12 44.56371 -47.85681 38361 ft 454 kts 271°
2026-05-07 17:12 44.56458 -47.94152 38344 ft 453 kts 271°
2026-05-07 17:13 44.56544 -48.02968 38341 ft 453 kts 271°
2026-05-07 17:13 44.56622 -48.11688 38344 ft 455 kts 271°
2026-05-07 17:14 44.56694 -48.20487 38346 ft 456 kts 271°
2026-05-07 17:14 44.56759 -48.29339 38344 ft 455 kts 271°
2026-05-07 17:15 44.56818 -48.38192 38338 ft 453 kts 271°
2026-05-07 17:15 44.56870 -48.47019 38332 ft 452 kts 270°
2026-05-07 17:16 44.56915 -48.55771 38328 ft 452 kts 271°
2026-05-07 17:16 44.56953 -48.64500 38332 ft 454 kts 271°
2026-05-07 17:17 44.56984 -48.73370 38336 ft 455 kts 270°
2026-05-07 17:17 44.57008 -48.81943 38333 ft 454 kts 270°
2026-05-07 17:18 44.57026 -48.90792 38328 ft 453 kts 270°
2026-05-07 17:18 44.57037 -48.99625 38324 ft 455 kts 270°
2026-05-07 17:19 44.57042 -49.08471 38314 ft 456 kts 270°
2026-05-07 17:19 44.57040 -49.17346 38308 ft 454 kts 270°
2026-05-07 17:20 44.57030 -49.26191 38307 ft 453 kts 270°
2026-05-07 17:20 44.57014 -49.35041 38302 ft 453 kts 270°
2026-05-07 17:21 44.56991 -49.43882 38299 ft 453 kts 270°
2026-05-07 17:21 44.56962 -49.52741 38303 ft 455 kts 270°
2026-05-07 17:22 44.56925 -49.61574 38306 ft 456 kts 270°
2026-05-07 17:22 44.56881 -49.70461 38288 ft 454 kts 270°
2026-05-07 17:23 44.56831 -49.79312 38286 ft 453 kts 270°
2026-05-07 17:23 44.56774 -49.88145 38286 ft 452 kts 270°
2026-05-07 17:24 44.56711 -49.96975 38277 ft 453 kts 270°
2026-05-07 17:24 44.56640 -50.05768 38279 ft 454 kts 269°
2026-05-07 17:25 44.56563 -50.14630 38274 ft 454 kts 269°
2026-05-07 17:25 44.56478 -50.23492 38269 ft 454 kts 269°
2026-05-07 17:26 44.56387 -50.32346 38261 ft 454 kts 269°
2026-05-07 17:26 44.56289 -50.41138 38255 ft 453 kts 269°
2026-05-07 17:27 44.56184 -50.49995 38270 ft 454 kts 269°
2026-05-07 17:27 44.56073 -50.58877 38263 ft 456 kts 269°
2026-05-07 17:28 44.55954 -50.67740 38266 ft 456 kts 268°
2026-05-07 17:28 44.55828 -50.76617 38256 ft 455 kts 268°
2026-05-07 17:29 44.55696 -50.85472 38244 ft 454 kts 268°
2026-05-07 17:29 44.55556 -50.94333 38243 ft 454 kts 268°
2026-05-07 17:30 44.55410 -51.03186 38235 ft 453 kts 268°
2026-05-07 17:30 44.55259 -51.11963 38232 ft 453 kts 268°
2026-05-07 17:31 44.55100 -51.20791 38227 ft 453 kts 268°
2026-05-07 17:31 44.54933 -51.29645 38226 ft 455 kts 268°
2026-05-07 17:32 44.54759 -51.38551 38223 ft 455 kts 267°
2026-05-07 17:32 44.54610 -51.45900 38220 ft 454 kts 267°
2026-05-07 17:33 44.54393 -51.56175 38213 ft 454 kts 267°
2026-05-07 17:33 44.54200 -51.65019 38213 ft 453 kts 267°
2026-05-07 17:34 44.53999 -51.73864 38199 ft 454 kts 267°
2026-05-07 17:34 44.53792 -51.82714 38200 ft 454 kts 267°
2026-05-07 17:35 44.53578 -51.91557 38195 ft 454 kts 267°
2026-05-07 17:35 44.53358 -52.00367 38182 ft 449 kts 267°
2026-05-07 17:36 44.53132 -52.09125 38184 ft 450 kts 267°
2026-05-07 17:36 44.52901 -52.17845 38183 ft 450 kts 267°
2026-05-07 17:37 44.52661 -52.26621 38183 ft 450 kts 267°
2026-05-07 17:37 44.52415 -52.35386 38175 ft 450 kts 267°
2026-05-07 17:38 44.52163 -52.44135 38172 ft 449 kts 267°
2026-05-07 17:38 44.51906 -52.52844 38156 ft 445 kts 267°
2026-05-07 17:39 44.51642 -52.61525 38142 ft 446 kts 267°
2026-05-07 17:39 44.51373 -52.70177 38144 ft 447 kts 267°
2026-05-07 17:40 44.51096 -52.78883 38144 ft 447 kts 267°
2026-05-07 17:40 44.50908 -52.84650 38140 ft 447 kts 267°
2026-05-07 17:41 44.50639 -52.92773 38146 ft 447 kts 267°
2026-05-07 17:41 44.50346 -53.01449 38124 ft 443 kts 267°
2026-05-07 17:42 44.50045 -53.10090 38124 ft 443 kts 268°
2026-05-07 17:42 44.49745 -53.18640 38120 ft 441 kts 268°
2026-05-07 17:43 44.49434 -53.27225 38122 ft 441 kts 268°
2026-05-07 17:43 44.49118 -53.35821 38109 ft 442 kts 268°
2026-05-07 17:44 44.48793 -53.44432 38113 ft 442 kts 268°
2026-05-07 17:44 44.48463 -53.53031 38105 ft 442 kts 268°
2026-05-07 17:45 44.48127 -53.61636 38102 ft 442 kts 268°
2026-05-07 17:45 44.47785 -53.70188 38097 ft 437 kts 269°
2026-05-07 17:46 44.47440 -53.78694 38095 ft 438 kts 269°
2026-05-07 17:46 44.47089 -53.87168 38099 ft 439 kts 269°
2026-05-07 17:47 44.46730 -53.95676 38089 ft 432 kts 269°
2026-05-07 17:47 44.46373 -54.04026 38076 ft 429 kts 269°
2026-05-07 17:48 44.46009 -54.12402 38077 ft 431 kts 269°
2026-05-07 17:48 44.45638 -54.20746 38065 ft 432 kts 269°
2026-05-07 17:49 44.45323 -54.27711 38067 ft 422 kts 269°
2026-05-07 17:49 44.44955 -54.35835 38061 ft 422 kts 269°
2026-05-07 17:50 44.44573 -54.44051 38072 ft 420 kts 269°
2026-05-07 17:50 44.44192 -54.52112 38069 ft 413 kts 269°
2026-05-07 17:51 44.43809 -54.60157 38065 ft 415 kts 269°
2026-05-07 17:51 44.43417 -54.68211 38059 ft 415 kts 269°
2026-05-07 17:52 44.43021 -54.76269 38053 ft 415 kts 269°
2026-05-07 17:52 44.42622 -54.84253 38054 ft 411 kts 269°
2026-05-07 17:53 44.42218 -54.92260 38047 ft 410 kts 269°
2026-05-07 17:53 44.41811 -55.00153 38039 ft 406 kts 268°
2026-05-07 17:54 44.41404 -55.07990 38042 ft 407 kts 268°
2026-05-07 17:54 44.40987 -55.15885 38033 ft 407 kts 268°
2026-05-07 17:55 44.40566 -55.23784 38031 ft 408 kts 268°
2026-05-07 17:55 44.40140 -55.31645 38024 ft 407 kts 268°
2026-05-07 17:56 44.39708 -55.39514 38028 ft 403 kts 268°
2026-05-07 17:56 44.39276 -55.47306 38021 ft 400 kts 268°
2026-05-07 17:57 44.38914 -55.53762 38019 ft 401 kts 268°
2026-05-07 17:57 44.38396 -55.62880 38023 ft 403 kts 268°
2026-05-07 17:58 44.37948 -55.70660 38019 ft 403 kts 268°
2026-05-07 17:58 44.37493 -55.78462 38019 ft 402 kts 268°
2026-05-07 17:59 44.37035 -55.86246 38012 ft 401 kts 268°
2026-05-07 17:59 44.36573 -55.93992 38002 ft 397 kts 267°
2026-05-07 18:00 44.36122 -56.01464 37998 ft 395 kts 268°
2026-05-07 18:00 44.35655 -56.09137 37992 ft 397 kts 267°
2026-05-07 18:01 44.35181 -56.16806 37999 ft 399 kts 267°
2026-05-07 18:01 44.34701 -56.24511 38000 ft 397 kts 267°
2026-05-07 18:02 44.33973 -56.36028 37987 ft 395 kts 267°
2026-05-07 18:03 44.33484 -56.43680 37981 ft 395 kts 267°
2026-05-07 18:03 44.32987 -56.51348 37971 ft 397 kts 267°
2026-05-07 18:04 44.32484 -56.59050 37979 ft 399 kts 267°
2026-05-07 18:04 44.31973 -56.66767 37982 ft 399 kts 267°
2026-05-07 18:05 44.31458 -56.74482 37974 ft 399 kts 267°
2026-05-07 18:05 44.30937 -56.82205 37972 ft 399 kts 266°
2026-05-07 18:06 44.30415 -56.89873 37965 ft 397 kts 266°
2026-05-07 18:06 44.29889 -56.97506 37961 ft 394 kts 266°
2026-05-07 18:07 44.29360 -57.05134 37955 ft 395 kts 266°
2026-05-07 18:07 44.28826 -57.12732 37951 ft 392 kts 266°
2026-05-07 18:08 44.28291 -57.20298 37951 ft 392 kts 266°
2026-05-07 18:08 44.27753 -57.27811 37944 ft 392 kts 266°
2026-05-07 18:09 44.27206 -57.35387 37962 ft 392 kts 266°
2026-05-07 18:09 44.26656 -57.42932 37949 ft 389 kts 266°
2026-05-07 18:10 44.26103 -57.50463 37957 ft 390 kts 266°
2026-05-07 18:10 44.25547 -57.57956 37945 ft 391 kts 266°
2026-05-07 18:11 44.24980 -57.65526 37945 ft 393 kts 266°
2026-05-07 18:11 44.24405 -57.73138 37949 ft 393 kts 265°
2026-05-07 18:12 44.23831 -57.80661 37946 ft 391 kts 265°
2026-05-07 18:12 44.23252 -57.88198 37951 ft 390 kts 265°
2026-05-07 18:13 44.22669 -57.95705 37944 ft 389 kts 265°
2026-05-07 18:13 44.22082 -58.03211 37946 ft 390 kts 265°
2026-05-07 18:14 44.21489 -58.10736 37934 ft 390 kts 265°
2026-05-07 18:14 44.20889 -58.18278 37948 ft 391 kts 265°
2026-05-07 18:15 44.20284 -58.25811 37945 ft 391 kts 265°
2026-05-07 18:15 44.19675 -58.33340 37941 ft 390 kts 265°
2026-05-07 18:16 44.19066 -58.40804 37933 ft 390 kts 265°
2026-05-07 18:16 44.18448 -58.48314 37929 ft 389 kts 265°
2026-05-07 18:17 44.17827 -58.55798 37929 ft 388 kts 265°
2026-05-07 18:17 44.17202 -58.63270 37931 ft 388 kts 265°
2026-05-07 18:18 44.16572 -58.70743 37928 ft 389 kts 264°
2026-05-07 18:18 44.15940 -58.78188 37926 ft 389 kts 264°
2026-05-07 18:19 44.15328 -58.85336 37920 ft 388 kts 264°
2026-05-07 18:19 44.14921 -58.90061 37925 ft 387 kts 264°
2026-05-07 18:20 44.14279 -58.97457 38560 ft 376 kts 264°
2026-05-07 18:20 44.13965 -59.01054 38835 ft 374 kts 264°
2026-05-07 18:20 44.13651 -59.04656 38898 ft 375 kts 264°
2026-05-07 18:20 44.13334 -59.08272 39009 ft 376 kts 264°
2026-05-07 18:21 44.13014 -59.11894 39109 ft 377 kts 264°
2026-05-07 18:21 44.12694 -59.15517 39214 ft 378 kts 264°
2026-05-07 18:21 44.12371 -59.19155 39303 ft 379 kts 264°
2026-05-07 18:22 44.11719 -59.26460 39486 ft 381 kts 264°
2026-05-07 18:22 44.11265 -59.31513 39634 ft 382 kts 263°
2026-05-07 18:23 44.10598 -59.38890 39755 ft 385 kts 263°
2026-05-07 18:23 44.09921 -59.46323 39878 ft 388 kts 263°
2026-05-07 18:24 44.09233 -59.53823 39903 ft 393 kts 263°
2026-05-07 18:24 44.08536 -59.61354 39897 ft 391 kts 263°
2026-05-07 18:25 44.07839 -59.68847 39896 ft 389 kts 263°
2026-05-07 18:25 44.07140 -59.76298 39888 ft 388 kts 263°
2026-05-07 18:26 44.06437 -59.83748 39890 ft 389 kts 263°
2026-05-07 18:26 44.05730 -59.91181 39874 ft 387 kts 263°
2026-05-07 18:27 44.05019 -59.98603 39870 ft 388 kts 263°
2026-05-07 18:27 44.04305 -60.06007 39872 ft 389 kts 263°
2026-05-07 18:28 44.03585 -60.13413 39866 ft 389 kts 263°
2026-05-07 18:28 44.02855 -60.20875 39864 ft 389 kts 262°
2026-05-07 18:29 44.02122 -60.28332 39862 ft 390 kts 262°
2026-05-07 18:29 44.01383 -60.35774 39856 ft 387 kts 262°
2026-05-07 18:30 44.00644 -60.43184 39849 ft 385 kts 262°
2026-05-07 18:30 43.99908 -60.50510 39844 ft 385 kts 262°
2026-05-07 18:31 43.99163 -60.57876 39833 ft 385 kts 262°
2026-05-07 18:31 43.98413 -60.65233 39833 ft 385 kts 262°
2026-05-07 18:32 43.97659 -60.72590 39834 ft 385 kts 262°
2026-05-07 18:32 43.96901 -60.79944 39840 ft 385 kts 261°
2026-05-07 18:33 43.96139 -60.87286 39834 ft 384 kts 261°
2026-05-07 18:33 43.95501 -60.93387 39828 ft 384 kts 261°
2026-05-07 18:34 43.94731 -61.00720 39812 ft 382 kts 261°
2026-05-07 18:34 43.93959 -61.08025 39814 ft 383 kts 261°
2026-05-07 18:35 43.93181 -61.15335 39806 ft 383 kts 261°
2026-05-07 18:35 43.92399 -61.22649 39817 ft 384 kts 261°
2026-05-07 18:36 43.91612 -61.29953 39813 ft 385 kts 261°
2026-05-07 18:36 43.90816 -61.37293 39806 ft 385 kts 261°
2026-05-07 18:37 43.90015 -61.44644 39802 ft 385 kts 261°
2026-05-07 18:37 43.89209 -61.51991 39789 ft 385 kts 261°
2026-05-07 18:38 43.88402 -61.59299 39785 ft 382 kts 261°
2026-05-07 18:38 43.87598 -61.66537 39785 ft 382 kts 260°
2026-05-07 18:39 43.86784 -61.73826 39782 ft 383 kts 260°
2026-05-07 18:39 43.85966 -61.81108 39780 ft 382 kts 260°
2026-05-07 18:40 43.85143 -61.88385 39768 ft 382 kts 260°
2026-05-07 18:40 43.84336 -61.95485 39767 ft 380 kts 260°
2026-05-07 18:41 43.83504 -62.02754 39772 ft 383 kts 260°
2026-05-07 18:41 43.82695 -62.09790 39767 ft 382 kts 260°
2026-05-07 18:42 43.81861 -62.17003 39791 ft 381 kts 259°
2026-05-07 18:42 43.81019 -62.24244 39778 ft 380 kts 259°
2026-05-07 18:43 43.80174 -62.31463 39770 ft 381 kts 259°
2026-05-07 18:43 43.79322 -62.38707 39767 ft 382 kts 259°
2026-05-07 18:44 43.78460 -62.45992 39769 ft 383 kts 259°
2026-05-07 18:44 43.77599 -62.53226 39767 ft 382 kts 259°
2026-05-07 18:45 43.76732 -62.60474 39759 ft 380 kts 259°
2026-05-07 18:45 43.75868 -62.67654 39755 ft 379 kts 259°
2026-05-07 18:46 43.74999 -62.74833 39755 ft 378 kts 259°
2026-05-07 18:46 43.74130 -62.81983 39750 ft 379 kts 259°
2026-05-07 18:47 43.73247 -62.89198 39757 ft 381 kts 259°
2026-05-07 18:47 43.72358 -62.96434 39764 ft 381 kts 259°
2026-05-07 18:48 43.71508 -63.03310 39750 ft 379 kts 259°
2026-05-07 18:48 43.70617 -63.10478 39745 ft 377 kts 259°
2026-05-07 18:49 43.69729 -63.17581 39742 ft 377 kts 259°
2026-05-07 18:49 43.68833 -63.24720 39735 ft 376 kts 258°
2026-05-07 18:50 43.67937 -63.31815 39737 ft 376 kts 258°
2026-05-07 18:50 43.67033 -63.38939 39740 ft 378 kts 258°
2026-05-07 18:51 43.66119 -63.46106 39746 ft 380 kts 258°
2026-05-07 18:51 43.65196 -63.53306 39748 ft 379 kts 258°
2026-05-07 18:52 43.64279 -63.60421 39742 ft 378 kts 258°
2026-05-07 18:52 43.63353 -63.67564 39740 ft 377 kts 258°
2026-05-07 18:53 43.62427 -63.74683 39734 ft 376 kts 258°
2026-05-07 18:53 43.61518 -63.81622 39733 ft 377 kts 258°
2026-05-07 18:54 43.60579 -63.88765 39740 ft 379 kts 258°
2026-05-07 18:54 43.59641 -63.95859 39740 ft 380 kts 258°
2026-05-07 18:55 43.58687 -64.03047 39739 ft 380 kts 258°
2026-05-07 18:55 43.57725 -64.10241 39735 ft 382 kts 257°
2026-05-07 18:56 43.56795 -64.17177 39739 ft 382 kts 257°
2026-05-07 18:56 43.55846 -64.24221 39729 ft 379 kts 257°
2026-05-07 18:57 43.54888 -64.31289 39727 ft 378 kts 257°
2026-05-07 18:57 43.53917 -64.38421 39725 ft 378 kts 257°
2026-05-07 18:58 43.52942 -64.45551 39727 ft 378 kts 257°
2026-05-07 18:58 43.51961 -64.52686 39729 ft 381 kts 257°
2026-05-07 18:59 43.50973 -64.59835 39745 ft 384 kts 257°
2026-05-07 18:59 43.49970 -64.67064 39744 ft 384 kts 257°
2026-05-07 19:00 43.49009 -64.73950 39714 ft 384 kts 257°
2026-05-07 19:00 43.48006 -64.81116 39730 ft 378 kts 257°
2026-05-07 19:01 43.47003 -64.88231 39728 ft 379 kts 257°
2026-05-07 19:01 43.45993 -64.95370 39729 ft 380 kts 257°
2026-05-07 19:02 43.44970 -65.02569 39740 ft 383 kts 257°
2026-05-07 19:02 43.43949 -65.09718 39740 ft 382 kts 257°
2026-05-07 19:03 43.42937 -65.16774 39737 ft 382 kts 257°
2026-05-07 19:03 43.41912 -65.23883 39734 ft 381 kts 257°
2026-05-07 19:04 43.40910 -65.30801 39729 ft 378 kts 257°
2026-05-07 19:04 43.39880 -65.37883 39722 ft 377 kts 257°
2026-05-07 19:05 43.38844 -65.44974 39740 ft 381 kts 256°
2026-05-07 19:05 43.37792 -65.52139 39745 ft 383 kts 256°
2026-05-07 19:06 43.36734 -65.59315 39747 ft 383 kts 256°
2026-05-07 19:06 43.35148 -65.70006 39755 ft 381 kts 256°
2026-05-07 19:07 43.34085 -65.77130 39750 ft 380 kts 256°
2026-05-07 19:07 43.33043 -65.84086 39734 ft 376 kts 256°
2026-05-07 19:08 43.31973 -65.91194 39753 ft 379 kts 256°
2026-05-07 19:08 43.30897 -65.98311 39760 ft 381 kts 256°
2026-05-07 19:09 43.29815 -66.05442 39759 ft 381 kts 256°
2026-05-07 19:09 43.28734 -66.12527 39763 ft 381 kts 256°
2026-05-07 19:10 43.27648 -66.19621 39761 ft 380 kts 256°
2026-05-07 19:10 43.26555 -66.26725 39760 ft 380 kts 256°
2026-05-07 19:11 43.25462 -66.33794 39793 ft 379 kts 256°
2026-05-07 19:11 43.24364 -66.40871 39757 ft 378 kts 256°
2026-05-07 19:12 43.23282 -66.47807 39757 ft 378 kts 256°
2026-05-07 19:12 43.22178 -66.54861 39761 ft 378 kts 256°
2026-05-07 19:13 43.21071 -66.61908 39762 ft 378 kts 256°
2026-05-07 19:13 43.19959 -66.68951 39760 ft 378 kts 256°
2026-05-07 19:14 43.18882 -66.75742 39764 ft 378 kts 256°
2026-05-07 19:14 43.17759 -66.82796 39773 ft 381 kts 255°
2026-05-07 19:15 43.16626 -66.89889 39762 ft 378 kts 256°
2026-05-07 19:15 43.15500 -66.96898 39766 ft 377 kts 256°
2026-05-07 19:16 43.14882 -67.04013 39782 ft 381 kts 263°
2026-05-07 19:16 43.14655 -67.11273 39783 ft 382 kts 263°
2026-05-07 19:17 43.14427 -67.18560 39779 ft 383 kts 263°
2026-05-07 19:17 43.14192 -67.25862 39778 ft 386 kts 263°
2026-05-07 19:18 43.13952 -67.33236 39778 ft 387 kts 263°
2026-05-07 19:18 43.13749 -67.39356 39778 ft 387 kts 263°
2026-05-07 19:19 43.13458 -67.47917 39776 ft 386 kts 263°
2026-05-07 19:19 43.13211 -67.55049 39775 ft 386 kts 263°
2026-05-07 19:20 43.12998 -67.61116 39774 ft 381 kts 263°
2026-05-07 19:20 43.12740 -67.68321 39766 ft 379 kts 263°
2026-05-07 19:21 43.12477 -67.75541 39768 ft 380 kts 263°
2026-05-07 19:21 43.12208 -67.82789 39774 ft 381 kts 263°
2026-05-07 19:22 43.11935 -67.90056 39772 ft 382 kts 262°
2026-05-07 19:22 43.11657 -67.97320 39773 ft 381 kts 262°
2026-05-07 19:23 43.11373 -68.04566 39781 ft 386 kts 262°
2026-05-07 19:23 43.11084 -68.11903 39787 ft 388 kts 262°
2026-05-07 19:24 43.10822 -68.19158 39779 ft 387 kts 263°
2026-05-07 19:24 43.10482 -68.26503 39777 ft 386 kts 262°
2026-05-07 19:25 43.10191 -68.33818 39779 ft 387 kts 262°
2026-05-07 19:25 43.09880 -68.41153 39818 ft 383 kts 262°
2026-05-07 19:26 43.09567 -68.48425 39768 ft 385 kts 262°
2026-05-07 19:26 43.09414 -68.52047 39645 ft 377 kts 262°
2026-05-07 19:26 43.09129 -68.55477 39534 ft 363 kts 252°
2026-05-07 19:27 43.07315 -68.61817 39313 ft 357 kts 245°
2026-05-07 19:27 43.06247 -68.64876 39208 ft 357 kts 245°
2026-05-07 19:27 43.05159 -68.67927 39107 ft 357 kts 244°
2026-05-07 19:28 43.04064 -68.70973 38989 ft 357 kts 244°
2026-05-07 19:28 43.02969 -68.74009 38885 ft 356 kts 244°
2026-05-07 19:28 43.00955 -68.80110 38024 ft 356 kts 249°
2026-05-07 19:29 43.00114 -68.83306 37233 ft 357 kts 249°
2026-05-07 19:29 42.99255 -68.86461 36611 ft 352 kts 248°
2026-05-07 19:29 42.98391 -68.89591 35848 ft 351 kts 249°
2026-05-07 19:29 42.97539 -68.92704 35141 ft 349 kts 249°
2026-05-07 19:30 42.96696 -68.95805 34431 ft 347 kts 249°
2026-05-07 19:30 42.95856 -68.98878 33707 ft 344 kts 249°
2026-05-07 19:30 42.95023 -69.01914 33102 ft 338 kts 249°
2026-05-07 19:30 42.94207 -69.04888 32560 ft 332 kts 248°
2026-05-07 19:31 42.93394 -69.07845 32012 ft 335 kts 248°
2026-05-07 19:31 42.92563 -69.10863 31437 ft 344 kts 248°
2026-05-07 19:31 42.91718 -69.13934 30836 ft 347 kts 248°
2026-05-07 19:31 42.90866 -69.17024 30213 ft 349 kts 248°
2026-05-07 19:32 42.90007 -69.20136 29582 ft 351 kts 248°
2026-05-07 19:32 42.89152 -69.23231 28899 ft 345 kts 248°
2026-05-07 19:32 42.88328 -69.26210 28284 ft 338 kts 248°
2026-05-07 19:32 42.87493 -69.29219 27659 ft 343 kts 248°
2026-05-07 19:33 42.86642 -69.32282 27064 ft 347 kts 248°
2026-05-07 19:33 42.85793 -69.35341 26447 ft 340 kts 248°
2026-05-07 19:33 42.84964 -69.38325 25843 ft 336 kts 248°
2026-05-07 19:33 42.84152 -69.41238 25266 ft 341 kts 248°
2026-05-07 19:34 42.83329 -69.44189 24680 ft 345 kts 248°
2026-05-07 19:34 42.82488 -69.47205 24082 ft 341 kts 248°
2026-05-07 19:34 42.81650 -69.50205 23480 ft 337 kts 249°
2026-05-07 19:34 42.80815 -69.53188 22893 ft 338 kts 248°
2026-05-07 19:35 42.79958 -69.56246 22248 ft 352 kts 248°
2026-05-07 19:35 42.79092 -69.59334 21632 ft 345 kts 248°
2026-05-07 19:35 42.78242 -69.62365 21023 ft 341 kts 248°
2026-05-07 19:35 42.77390 -69.65394 20438 ft 344 kts 248°
2026-05-07 19:36 42.76533 -69.68435 19830 ft 341 kts 248°
2026-05-07 19:36 42.75691 -69.71425 19244 ft 337 kts 248°
2026-05-07 19:36 42.74845 -69.74422 18658 ft 342 kts 248°
2026-05-07 19:36 42.73984 -69.77467 18064 ft 347 kts 248°
2026-05-07 19:37 42.73123 -69.80513 17427 ft 341 kts 248°
2026-05-07 19:37 42.72281 -69.83487 16844 ft 335 kts 248°
2026-05-07 19:37 42.71444 -69.86441 16289 ft 334 kts 248°
2026-05-07 19:37 42.70605 -69.89393 15682 ft 334 kts 248°
2026-05-07 19:38 42.69783 -69.92284 15115 ft 327 kts 248°
2026-05-07 19:38 42.68969 -69.95146 14554 ft 323 kts 248°
2026-05-07 19:38 42.68154 -69.98008 13986 ft 323 kts 249°
2026-05-07 19:38 42.67352 -70.00819 13421 ft 314 kts 249°
2026-05-07 19:39 42.66572 -70.03548 12886 ft 305 kts 249°
2026-05-07 19:39 42.65816 -70.06195 12427 ft 295 kts 249°
2026-05-07 19:39 42.65092 -70.08716 12268 ft 275 kts 248°
2026-05-07 19:39 42.64322 -70.10974 12095 ft 259 kts 246°
2026-05-07 19:40 42.63578 -70.13142 11842 ft 247 kts 247°
2026-05-07 19:40 42.62863 -70.15230 11583 ft 242 kts 247°
2026-05-07 19:40 42.62154 -70.17298 11326 ft 241 kts 247°
2026-05-07 19:40 42.61523 -70.19134 11090 ft 241 kts 247°
2026-05-07 19:41 42.60795 -70.21081 10835 ft 244 kts 240°
2026-05-07 19:41 42.59662 -70.22853 10570 ft 254 kts 227°
2026-05-07 19:41 42.58156 -70.24184 10379 ft 261 kts 213°
2026-05-07 19:41 42.56480 -70.25116 10193 ft 264 kts 211°
2026-05-07 19:42 42.54786 -70.26030 9915 ft 260 kts 210°
2026-05-07 19:42 42.53111 -70.26929 9623 ft 259 kts 210°
2026-05-07 19:42 42.51440 -70.27834 9320 ft 258 kts 210°
2026-05-07 19:42 42.49809 -70.28800 9018 ft 251 kts 220°
2026-05-07 19:43 42.48539 -70.30279 8997 ft 235 kts 235°
2026-05-07 19:43 42.47685 -70.32123 8857 ft 237 kts 250°
2026-05-07 19:43 42.47246 -70.34243 8419 ft 232 kts 259°
2026-05-07 19:43 42.46877 -70.36363 7972 ft 230 kts 259°
2026-05-07 19:44 42.46515 -70.38467 7529 ft 229 kts 259°
2026-05-07 19:44 42.46163 -70.40527 7144 ft 226 kts 259°
2026-05-07 19:44 42.45827 -70.42489 6821 ft 223 kts 259°
2026-05-07 19:44 42.45521 -70.44271 6510 ft 220 kts 259°
2026-05-07 19:45 42.45174 -70.46293 6175 ft 218 kts 259°
2026-05-07 19:45 42.44832 -70.48278 5991 ft 209 kts 259°
2026-05-07 19:45 42.44514 -70.50117 5983 ft 192 kts 260°
2026-05-07 19:45 42.44223 -70.51804 6015 ft 181 kts 260°
2026-05-07 19:46 42.43941 -70.53448 6002 ft 178 kts 260°
2026-05-07 19:46 42.43660 -70.55089 5909 ft 185 kts 260°
2026-05-07 19:46 42.43362 -70.56810 5567 ft 186 kts 260°
2026-05-07 19:46 42.43070 -70.58494 5243 ft 182 kts 260°
2026-05-07 19:47 42.42785 -70.60160 4907 ft 181 kts 261°
2026-05-07 19:47 42.42544 -70.61783 4654 ft 178 kts 261°
2026-05-07 19:47 42.42266 -70.63410 4393 ft 179 kts 259°
2026-05-07 19:47 42.41977 -70.65043 4131 ft 177 kts 260°
2026-05-07 19:48 42.41695 -70.66642 4026 ft 173 kts 259°
2026-05-07 19:48 42.41410 -70.68256 4008 ft 177 kts 259°
2026-05-07 19:48 42.41175 -70.69580 4000 ft 175 kts 259°
2026-05-07 19:48 42.40891 -70.71195 4010 ft 178 kts 259°
2026-05-07 19:49 42.40600 -70.72835 3915 ft 182 kts 259°
2026-05-07 19:49 42.40316 -70.74442 3689 ft 178 kts 259°
2026-05-07 19:49 42.40030 -70.76066 3450 ft 178 kts 259°
2026-05-07 19:49 42.39744 -70.77678 3211 ft 175 kts 259°
2026-05-07 19:50 42.39465 -70.79245 2984 ft 172 kts 259°
2026-05-07 19:50 42.39188 -70.80821 2743 ft 174 kts 259°
2026-05-07 19:50 42.38905 -70.82428 2508 ft 175 kts 258°
2026-05-07 19:50 42.38633 -70.83955 2265 ft 159 kts 258°
2026-05-07 19:51 42.38381 -70.85392 2051 ft 155 kts 260°
2026-05-07 19:51 42.38136 -70.86805 1843 ft 153 kts 259°
2026-05-07 19:51 42.37890 -70.88196 1652 ft 151 kts 258°
2026-05-07 19:51 42.37642 -70.89585 1447 ft 153 kts 259°
2026-05-07 19:52 42.37393 -70.90988 1230 ft 150 kts 260°
2026-05-07 19:52 42.37162 -70.92339 1031 ft 153 kts 260°
2026-05-07 19:52 42.36916 -70.93724 813 ft 144 kts 259°
2026-05-07 19:52 42.36687 -70.95038 627 ft 143 kts 258°
2026-05-07 19:53 42.36458 -70.96304 437 ft 137 kts 259°
2026-05-07 19:53 42.36234 -70.97552 257 ft 136 kts 258°
2026-05-07 19:53 42.36012 -70.98807 90 ft 136 kts 259°
2026-05-07 19:53 42.35831 -70.99864 31 ft 95 kts 256°
2026-05-07 19:54 42.35711 -71.00519 31 ft 47 kts 256°
2026-05-07 19:54 42.35656 -71.00825 31 ft 30 kts 256°
2026-05-07 19:54 42.35631 -71.01086 31 ft 25 kts 289°
2026-05-07 19:54 42.35691 -71.01208 31 ft 13 kts 307°
2026-05-07 19:55 42.35738 -71.01301 31 ft 11 kts 292°
2026-05-07 19:55 42.35765 -71.01396 31 ft 10 kts 291°
2026-05-07 19:55 42.35789 -71.01484 31 ft 10 kts 290°
2026-05-07 19:55 42.35809 -71.01575 31 ft 10 kts 285°
2026-05-07 19:56 42.35846 -71.01656 31 ft 8 kts 338°
2026-05-07 19:56 42.35918 -71.01635 31 ft 18 kts 18°
2026-05-07 19:56 42.36077 -71.01564 31 ft 29 kts 18°
2026-05-07 19:56 42.36279 -71.01469 31 ft 25 kts 21°
2026-05-07 19:57 42.36406 -71.01458 31 ft 17 kts 313°
2026-05-07 19:57 42.36445 -71.01615 31 ft 21 kts 285°
2026-05-07 19:57 42.36467 -71.01726 30 ft 5 kts 284°
2026-05-07 19:57 42.36472 -71.01755 31 ft 0 kts 284°